When you browse on this site, cookies collect data to enhance your experience and personalize the content and advertising you see.
Visit our Privacy Policy to learn more. By continuing to use the site, you agree to this use of cookies and data.
  • In Czech Republic
  • List of Countries
  • For 7 days
  • Water Temperature
  • Satellite Maps
  • Weather Map
  • Weather Widgets
  • user-avatar
    Login

    Hourly Weather Proletariy

    Today, 20 November, Tuesday

    Time Temperature Precipitation Wind Pressure Humidity
    00:00 -2°C° 0 mm 3 mps 761 mmHg 92%
    01:00 -2°C° 0 mm 2 mps 761 mmHg 92%
    02:00 -3°C° 0 mm 2 mps 761 mmHg 93%
    03:00 -3°C° 0 mm 2 mps 761 mmHg 94%
    04:00 -4°C° 0 mm 2 mps 761 mmHg 94%
    05:00 -4°C° 0 mm 2 mps 761 mmHg 95%
    06:00 -4°C° 0 mm 2 mps 761 mmHg 95%
    07:00 -4°C° 0 mm 2 mps 761 mmHg 94%
    08:00 -5°C° 0 mm 2 mps 761 mmHg 94%
    09:00 -2°C° 0 mm 1 mps 761 mmHg 90%
    10:00 -1°C° 0 mm 1 mps 761 mmHg 86%
    11:00 -1°C° 0 mm 1 mps 760 mmHg 83%
    12:00 0°C° 0 mm 1 mps 760 mmHg 81%
    13:00 0°C° 0 mm 1 mps 760 mmHg 80%
    14:00 0°C° 0 mm 1 mps 760 mmHg 78%
    15:00 0°C° 0 mm 1 mps 760 mmHg 81%
    16:00 -1°C° 0 mm 1 mps 760 mmHg 84%
    17:00 -2°C° 0 mm 1 mps 760 mmHg 86%
    18:00 -2°C° 0 mm 1 mps 759 mmHg 87%
    19:00 -2°C° 0 mm 1 mps 759 mmHg 88%
    20:00 -2°C° 0 mm 1 mps 759 mmHg 88%
    21:00 -2°C° 0 mm 1 mps 759 mmHg 88%
    22:00 -2°C° 0 mm 1 mps 759 mmHg 87%
    23:00 -2°C° 0 mm 1 mps 759 mmHg 87%

    Tomorrow, 21 November, Wednesday

    Time Temperature Precipitation Wind Pressure Humidity
    00:00 -2°C° 0 mm 1 mps 759 mmHg 86%
    01:00 -2°C° 0 mm 1 mps 759 mmHg 85%
    02:00 -2°C° 0 mm 1 mps 759 mmHg 84%
    03:00 -2°C° 0 mm 1 mps 759 mmHg 84%
    04:00 -2°C° 0 mm 1 mps 759 mmHg 83%
    05:00 -2°C° 0 mm 1 mps 759 mmHg 82%
    06:00 -2°C° 0 mm 1 mps 759 mmHg 83%
    07:00 -2°C° 0 mm 1 mps 759 mmHg 83%
    08:00 -2°C° 0 mm 1 mps 759 mmHg 84%
    09:00 -3°C° 0 mm 2 mps 759 mmHg 84%
    10:00 -2°C° 0 mm 2 mps 759 mmHg 83%
    11:00 -1°C° 0 mm 2 mps 759 mmHg 83%
    12:00 -1°C° 0 mm 2 mps 759 mmHg 83%
    13:00 -1°C° 0 mm 2 mps 759 mmHg 82%
    14:00 +1°C° 0 mm 2 mps 759 mmHg 81%
    15:00 -1°C° 0 mm 2 mps 759 mmHg 82%
    16:00 -1°C° 0 mm 2 mps 759 mmHg 82%
    17:00 -1°C° 0 mm 2 mps 759 mmHg 82%
    18:00 -2°C° 0 mm 2 mps 759 mmHg 83%
    19:00 -2°C° 0 mm 2 mps 759 mmHg 84%
    20:00 -1°C° 0 mm 1 mps 759 mmHg 85%
    21:00 -1°C° 0 mm 1 mps 759 mmHg 87%
    22:00 -1°C° 0 mm 1 mps 759 mmHg 90%
    23:00 -2°C° 0 mm 1 mps 759 mmHg 92%

    Day after tomorrow, 22 November, Thursday

    Time Temperature Precipitation Wind Pressure Humidity
    00:00 -2°C° 0 mm 1 mps 759 mmHg 93%
    01:00 -2°C° 0 mm 1 mps 759 mmHg 94%
    02:00 -4°C° 0 mm 2 mps 759 mmHg 95%
    03:00 -4°C° 0 mm 2 mps 759 mmHg 95%
    04:00 -4°C° 0 mm 2 mps 759 mmHg 95%
    05:00 -4°C° 0 mm 2 mps 758 mmHg 95%
    06:00 -4°C° 0 mm 2 mps 758 mmHg 95%
    07:00 -4°C° 0 mm 2 mps 758 mmHg 95%
    08:00 -4°C° 0 mm 2 mps 758 mmHg 95%
    09:00 -4°C° 0 mm 2 mps 758 mmHg 91%
    10:00 -4°C° 0 mm 3 mps 758 mmHg 86%
    11:00 -2°C° 0 mm 3 mps 758 mmHg 82%
    12:00 -2°C° 0 mm 3 mps 758 mmHg 80%
    13:00 -2°C° 0 mm 4 mps 757 mmHg 78%
    14:00 -2°C° 0 mm 4 mps 757 mmHg 77%
    15:00 -3°C° 0 mm 4 mps 757 mmHg 80%
    16:00 -3°C° 0 mm 4 mps 757 mmHg 83%
    17:00 -4°C° 0 mm 4 mps 757 mmHg 87%
    18:00 -4°C° 0 mm 4 mps 757 mmHg 88%
    19:00 -4°C° 0 mm 4 mps 757 mmHg 89%
    20:00 -4°C° 0 mm 4 mps 757 mmHg 90%
    21:00 -3°C° 0 mm 4 mps 757 mmHg 89%
    22:00 -2°C° 0 mm 3 mps 757 mmHg 88%
    23:00 -2°C° 0 mm 3 mps 757 mmHg 87%

    23 November, Friday

    Time Temperature Precipitation Wind Pressure Humidity
    00:00 -1°C° 0 mm 3 mps 757 mmHg 88%
    01:00 -1°C° 0 mm 2 mps 758 mmHg 89%
    02:00 -1°C° 0 mm 2 mps 758 mmHg 90%
    03:00 -2°C° 0 mm 2 mps 758 mmHg 91%
    04:00 -2°C° 0 mm 2 mps 758 mmHg 92%
    05:00 -2°C° 0 mm 2 mps 758 mmHg 93%
    06:00 0°C° 0 mm 1 mps 759 mmHg 93%
    07:00 0°C° 0 mm 1 mps 759 mmHg 94%
    08:00 0°C° 0 mm 1 mps 759 mmHg 95%
    09:00 +1°C° 0 mm 1 mps 759 mmHg 92%
    10:00 +1°C° 0 mm 1 mps 760 mmHg 89%
    11:00 +1°C° 0 mm 1 mps 760 mmHg 87%
    12:00 +1°C° 0 mm 1 mps 760 mmHg 86%
    13:00 -1°C° 0 mm 2 mps 760 mmHg 84%
    14:00 -1°C° 0 mm 2 mps 760 mmHg 83%
    15:00 -1°C° 0 mm 2 mps 759 mmHg 84%
    16:00 -1°C° 0 mm 2 mps 759 mmHg 84%
    17:00 -2°C° 0 mm 2 mps 759 mmHg 85%
    18:00 -2°C° 0 mm 2 mps 759 mmHg 86%
    19:00 -2°C° 0 mm 2 mps 759 mmHg 87%
    20:00 -2°C° 0 mm 3 mps 758 mmHg 87%
    21:00 -4°C° 0 mm 3 mps 758 mmHg 89%
    22:00 -4°C° 0 mm 3 mps 758 mmHg 90%
    23:00 -5°C° 0 mm 3 mps 757 mmHg 91%

    24 November, Saturday

    Time Temperature Precipitation Wind Pressure Humidity
    00:00 -5°C° 0 mm 3 mps 757 mmHg 91%
    01:00 -5°C° 0 mm 3 mps 756 mmHg 91%
    02:00 -5°C° 0 mm 3 mps 756 mmHg 90%
    03:00 -5°C° 0 mm 3 mps 756 mmHg 89%
    04:00 -5°C° 0 mm 3 mps 755 mmHg 88%
    05:00 -5°C° 0 mm 3 mps 755 mmHg 87%
    06:00 -6°C° 0 mm 3 mps 754 mmHg 87%
    07:00 -6°C° 0 mm 3 mps 754 mmHg 86%
    08:00 -6°C° 0 mm 3 mps 754 mmHg 86%
    09:00 -5°C° 0 mm 3 mps 753 mmHg 82%
    10:00 -5°C° 0 mm 3 mps 753 mmHg 79%
    11:00 -4°C° 0 mm 3 mps 753 mmHg 76%
    12:00 -3°C° 0 mm 2 mps 753 mmHg 75%
    13:00 -2°C° 0 mm 2 mps 753 mmHg 75%
    14:00 -2°C° 0 mm 2 mps 752 mmHg 74%
    15:00 -3°C° 0 mm 2 mps 752 mmHg 77%
    16:00 -1°C° 0 mm 1 mps 752 mmHg 79%
    17:00 -2°C° 0 mm 1 mps 752 mmHg 82%
    18:00 -2°C° 0 mm 1 mps 751 mmHg 82%
    19:00 -2°C° 0 mm 1 mps 751 mmHg 82%
    20:00 -2°C° 0 mm 1 mps 751 mmHg 82%
    21:00 -2°C° 0 mm 1 mps 751 mmHg 82%
    22:00 -2°C° 0 mm 1 mps 751 mmHg 83%
    23:00 -2°C° 0 mm 1 mps 751 mmHg 83%

    25 November, Sunday

    Time Temperature Precipitation Wind Pressure Humidity
    00:00 -2°C° 0 mm 1 mps 751 mmHg 84%
    01:00 -2°C° 0 mm 1 mps 751 mmHg 85%
    02:00 -2°C° 0 mm 1 mps 751 mmHg 86%
    03:00 -2°C° 0 mm 1 mps 751 mmHg 88%
    04:00 -2°C° 0 mm 1 mps 751 mmHg 89%
    05:00 -3°C° 0 mm 0 mps 751 mmHg 91%
    06:00 -3°C° 0 mm 0 mps 751 mmHg 91%
    07:00 -3°C° 0 mm 0 mps 751 mmHg 92%
    08:00 -3°C° 0 mm 0 mps 751 mmHg 92%
    09:00 -2°C° 0 mm 1 mps 751 mmHg 90%
    10:00 -1°C° 0 mm 1 mps 751 mmHg 88%
    11:00 0°C° 0 mm 1 mps 751 mmHg 86%
    12:00 0°C° 0 mm 1 mps 751 mmHg 86%
    13:00 0°C° 0 mm 1 mps 751 mmHg 86%
    14:00 -2°C° 0 mm 2 mps 750 mmHg 87%
    15:00 -3°C° 0 mm 2 mps 750 mmHg 88%
    16:00 -3°C° 0 mm 2 mps 750 mmHg 89%
    17:00 -3°C° 0 mm 2 mps 750 mmHg 91%
    18:00 -3°C° 0 mm 2 mps 750 mmHg 90%
    19:00 -3°C° 0 mm 2 mps 750 mmHg 89%
    20:00 -3°C° 0 mm 2 mps 750 mmHg 88%
    21:00 -3°C° 0 mm 2 mps 750 mmHg 87%
    22:00 -4°C° 0 mm 3 mps 750 mmHg 86%
    23:00 -5°C° 0 mm 3 mps 749 mmHg 85%
    Show more